Hillsdale, MI

4:58 PM EST on February 06, 2016 (GMT -0500)
Hillsdale Municipal

Weather History for KJYM - December, 2013

Change the Weather History Date:

Monday, December 23, 2013

  Actual Average (KJXN) Record (KJXN)
Temperature  
Mean Temperature 25 °F 26 °F  
Max Temperature 33 °F 33 °F - ()
Min Temperature 15 °F 19 °F - ()
Degree Days  
Heating Degree Days 40 39  
Month to date heating degree days 824  
Since 1 July heating degree days 2228  
Cooling Degree Days 0 0  
Month to date cooling degree days 0  
Year to date cooling degree days 592  
Moisture  
Dew Point 21 °F    
Average Humidity 81    
Maximum Humidity 100    
Minimum Humidity 68    
Precipitation  
Precipitation 0.00 in 0.06 in - ()
Month to date precipitation 1.40  
Year to date precipitation 31.03  
Sea Level Pressure  
Sea Level Pressure 30.17 in    
Wind  
Wind Speed 11 mph (West)    
Max Wind Speed 16 mph    
Max Gust Speed 24 mph    
Visibility 10 miles    
Events      
T = Trace of Precipitation, MM = Missing Value Source: NWS Daily Summary

Daily Weather History Graph

Daily Weather History Graph

Search for Another Location

Airport or City:

Trip Planner

Search our weather history database for the weather conditions in past years. The results will help you decide how hot, cold, wet, or windy it might be!

Date:

Astronomy

Dec. 23, 2013 Rise Set
Actual Time 8:03 AM EST 5:11 PM EST
Civil Twilight 7:32 AM EST 5:43 PM EST
Nautical Twilight 6:56 AM EST 6:18 PM EST
Astronomical Twilight 6:22 AM EST 6:52 PM EST
Moon 11:26 PM EST (12/23) 11:23 AM EST (12/23)
Length of Visible Light 10h 11m
Length of Day
9h 07m
Waning Gibbous, 68% of the Moon is Illuminated
Dec 23
Waning Gibbous
Dec 25
Last Quarter
Jan 1
New
Jan 7
First Quarter
Jan 15
Full

Hourly Weather History & Observations

Time (EST) Temp. Windchill Dew Point Humidity Pressure Visibility Wind Dir Wind Speed Gust Speed Precip Events Conditions
12:15 AM 33.8 °F 26.4 °F 30.2 °F 87% 29.95 in 10.0 mi West 9.2 mph - N/A   Overcast
12:35 AM 32.0 °F 21.6 °F 30.2 °F 93% 29.97 in 10.0 mi West 15.0 mph 18.4 mph N/A   Overcast
12:55 AM 32.0 °F 23.6 °F 30.2 °F 93% 29.98 in 7.0 mi West 10.4 mph - N/A   Overcast
1:15 AM 32.0 °F 23.6 °F 30.2 °F 93% 29.98 in 7.0 mi West 10.4 mph - N/A   Overcast
1:35 AM 32.0 °F 23.6 °F 30.2 °F 93% 29.98 in 10.0 mi West 10.4 mph - N/A   Overcast
1:55 AM 30.2 °F 20.8 °F 30.2 °F 100% 29.99 in 10.0 mi West 11.5 mph - N/A   Overcast
2:15 AM 30.2 °F 20.8 °F 28.4 °F 93% 30.00 in 10.0 mi West 11.5 mph - N/A   Overcast
2:35 AM 30.2 °F 20.2 °F 28.4 °F 93% 30.02 in 10.0 mi West 12.7 mph - N/A   Overcast
2:55 AM 30.2 °F 22.6 °F 28.4 °F 93% 30.02 in 10.0 mi West 8.1 mph - N/A   Overcast
3:15 AM 30.2 °F 21.3 °F 28.4 °F 93% 30.03 in 10.0 mi West 10.4 mph 16.1 mph N/A   Overcast
3:35 AM 30.2 °F 21.9 °F 28.4 °F 93% 30.03 in 10.0 mi West 9.2 mph 17.3 mph N/A   Overcast
3:55 AM 30.2 °F 20.2 °F 28.4 °F 93% 30.03 in 10.0 mi West 12.7 mph 17.3 mph N/A   Overcast
4:15 AM 30.2 °F 21.9 °F 28.4 °F 93% 30.03 in 10.0 mi West 9.2 mph - N/A   Overcast
4:35 AM 30.2 °F 22.6 °F 28.4 °F 93% 30.04 in 10.0 mi West 8.1 mph 12.7 mph N/A   Overcast
4:55 AM 30.2 °F 21.9 °F 28.4 °F 93% 30.04 in 7.0 mi West 9.2 mph 16.1 mph N/A   Overcast
5:15 AM 30.2 °F 20.8 °F 28.4 °F 93% 30.05 in 10.0 mi West 11.5 mph 17.3 mph N/A   Overcast
5:35 AM 30.2 °F 21.3 °F 28.4 °F 93% 30.05 in 10.0 mi West 10.4 mph - N/A   Overcast
5:55 AM 30.2 °F 20.2 °F 28.4 °F 93% 30.06 in 10.0 mi West 12.7 mph 18.4 mph N/A   Overcast
6:15 AM 30.2 °F 21.3 °F 26.6 °F 86% 30.06 in 10.0 mi West 10.4 mph - N/A   Overcast
6:35 AM 30.2 °F 20.8 °F 26.6 °F 86% 30.08 in 10.0 mi West 11.5 mph 20.7 mph N/A   Overcast
6:55 AM 30.2 °F 19.3 °F 26.6 °F 86% 30.09 in 10.0 mi West 15.0 mph 19.6 mph N/A   Overcast
7:15 AM 28.4 °F 17.5 °F 26.6 °F 93% 30.11 in 10.0 mi West 13.8 mph 21.9 mph N/A   Overcast
7:35 AM 28.4 °F 18.0 °F 26.6 °F 93% 30.12 in 10.0 mi West 12.7 mph 20.7 mph N/A   Overcast
7:55 AM 28.4 °F 17.5 °F 26.6 °F 93% 30.12 in 10.0 mi West 13.8 mph 19.6 mph N/A   Overcast
8:15 AM 28.4 °F 18.0 °F 26.6 °F 93% 30.13 in 10.0 mi West 12.7 mph 19.6 mph N/A   Overcast
8:35 AM 28.4 °F 16.6 °F 26.6 °F 93% 30.15 in 10.0 mi West 16.1 mph - N/A   Overcast
8:55 AM 28.4 °F 19.1 °F 26.6 °F 93% 30.16 in 10.0 mi West 10.4 mph - N/A   Overcast
9:15 AM 28.4 °F 18.5 °F 24.8 °F 86% 30.16 in 7.0 mi West 11.5 mph - N/A   Overcast
9:35 AM 28.4 °F 18.5 °F 24.8 °F 86% 30.18 in 10.0 mi West 11.5 mph 17.3 mph N/A   Overcast
9:55 AM 28.4 °F 18.0 °F 24.8 °F 86% 30.19 in 7.0 mi West 12.7 mph 18.4 mph N/A   Overcast
10:15 AM 28.4 °F 17.0 °F 23.0 °F 80% 30.20 in 7.0 mi West 15.0 mph 24.2 mph N/A   Overcast
10:35 AM 28.4 °F 16.6 °F 21.2 °F 74% 30.22 in 10.0 mi West 16.1 mph 19.6 mph N/A   Overcast
10:55 AM 28.4 °F 16.6 °F 21.2 °F 74% 30.22 in 10.0 mi West 16.1 mph 24.2 mph N/A   Overcast
11:15 AM 28.4 °F 17.5 °F 21.2 °F 74% 30.22 in 10.0 mi West 13.8 mph 19.6 mph N/A   Overcast
11:35 AM 28.4 °F 17.5 °F 21.2 °F 74% 30.22 in 10.0 mi West 13.8 mph 18.4 mph N/A   Overcast
11:55 AM 28.4 °F 17.5 °F 21.2 °F 74% 30.22 in 10.0 mi West 13.8 mph 20.7 mph N/A   Overcast
12:15 PM 28.4 °F 18.5 °F 21.2 °F 74% 30.22 in 10.0 mi West 11.5 mph 17.3 mph N/A   Overcast
12:35 PM 28.4 °F 17.5 °F 21.2 °F 74% 30.22 in 10.0 mi West 13.8 mph - N/A   Overcast
12:55 PM 28.4 °F 17.5 °F 21.2 °F 74% 30.22 in 10.0 mi West 13.8 mph 18.4 mph N/A   Overcast
1:15 PM 28.4 °F 18.0 °F 23.0 °F 80% 30.21 in 5.0 mi West 12.7 mph - N/A   Overcast
1:35 PM 28.4 °F 20.4 °F 24.8 °F 86% 30.21 in 10.0 mi West 8.1 mph - N/A   Overcast
1:55 PM 28.4 °F 18.5 °F 23.0 °F 80% 30.21 in 10.0 mi West 11.5 mph 17.3 mph N/A   Overcast
2:15 PM 28.4 °F 18.5 °F 21.2 °F 74% 30.21 in 10.0 mi West 11.5 mph 17.3 mph N/A   Overcast
2:35 PM 28.4 °F 19.7 °F 21.2 °F 74% 30.22 in 10.0 mi West 9.2 mph - N/A   Overcast
2:55 PM 28.4 °F 19.1 °F 21.2 °F 74% 30.22 in 10.0 mi WSW 10.4 mph - N/A   Overcast
3:15 PM 28.4 °F 19.7 °F 19.4 °F 69% 30.22 in 10.0 mi West 9.2 mph - N/A   Overcast
3:35 PM 26.6 °F 19.1 °F 19.4 °F 74% 30.23 in 10.0 mi West 6.9 mph 16.1 mph N/A   Overcast
3:55 PM 26.6 °F 16.8 °F 17.6 °F 69% 30.23 in 10.0 mi West 10.4 mph 18.4 mph N/A   Overcast
4:15 PM 26.6 °F 17.5 °F 19.4 °F 74% 30.23 in 10.0 mi WSW 9.2 mph 16.1 mph N/A   Overcast
4:35 PM 26.6 °F 16.2 °F 17.6 °F 69% 30.24 in 10.0 mi WSW 11.5 mph - N/A   Overcast
4:55 PM 26.6 °F 17.5 °F 17.6 °F 69% 30.25 in 10.0 mi WSW 9.2 mph 16.1 mph N/A   Overcast
5:15 PM 26.6 °F 16.8 °F 17.6 °F 69% 30.25 in 10.0 mi WSW 10.4 mph 17.3 mph N/A   Overcast
5:35 PM 26.6 °F 16.2 °F 17.6 °F 69% 30.25 in 10.0 mi WSW 11.5 mph - N/A   Overcast
5:55 PM 24.8 °F 13.4 °F 17.6 °F 74% 30.26 in 10.0 mi WSW 12.7 mph 20.7 mph N/A   Overcast
6:15 PM 24.8 °F 14.6 °F 17.6 °F 74% 30.26 in 10.0 mi WSW 10.4 mph - N/A   Overcast
6:35 PM 23.0 °F 11.1 °F 15.8 °F 74% 30.26 in 10.0 mi WSW 12.7 mph - N/A   Scattered Clouds
6:55 PM 21.2 °F 10.1 °F 14.0 °F 74% 30.27 in 10.0 mi WSW 10.4 mph - N/A   Clear
7:15 PM 21.2 °F 10.1 °F 14.0 °F 74% 30.28 in 10.0 mi West 10.4 mph - N/A   Scattered Clouds
7:35 PM 21.2 °F 10.9 °F 14.0 °F 74% 30.28 in 10.0 mi WSW 9.2 mph - N/A   Scattered Clouds
7:55 PM 21.2 °F 8.9 °F 12.2 °F 68% 30.28 in 10.0 mi WSW 12.7 mph 17.3 mph N/A   Mostly Cloudy
8:15 PM 19.4 °F 6.6 °F 12.2 °F 74% 30.28 in 10.0 mi WSW 12.7 mph 20.7 mph N/A   Overcast
8:35 PM 19.4 °F 7.9 °F 12.2 °F 74% 30.28 in 10.0 mi WSW 10.4 mph - N/A   Overcast
8:55 PM 19.4 °F 6.6 °F 10.4 °F 68% 30.28 in 10.0 mi WSW 12.7 mph 17.3 mph N/A   Overcast
9:15 PM 17.6 °F 5.0 °F 10.4 °F 73% 30.27 in 10.0 mi West 11.5 mph 17.3 mph N/A   Mostly Cloudy
9:35 PM 17.6 °F 7.3 °F 10.4 °F 73% 30.28 in 10.0 mi West 8.1 mph - N/A   Mostly Cloudy
9:55 PM 17.6 °F 8.2 °F 12.2 °F 79% 30.28 in 10.0 mi West 6.9 mph - N/A   Overcast
10:15 PM 17.6 °F 5.0 °F 10.4 °F 73% 30.28 in 10.0 mi WNW 11.5 mph 18.4 mph N/A   Overcast
10:35 PM 17.6 °F 4.3 °F 10.4 °F 73% 30.27 in 10.0 mi West 12.7 mph - N/A   Overcast
10:55 PM 17.6 °F 5.0 °F 10.4 °F 73% 30.27 in 10.0 mi West 11.5 mph - N/A   Overcast
11:15 PM 17.6 °F 6.4 °F 10.4 °F 73% 30.28 in 7.0 mi West 9.2 mph - N/A   Overcast
11:35 PM 17.6 °F 6.4 °F 10.4 °F 73% 30.28 in 5.0 mi West 9.2 mph - N/A   Overcast
11:55 PM 15.8 °F 3.4 °F 8.6 °F 73% 30.28 in 10.0 mi West 10.4 mph - N/A   Overcast